Погода Анучино

Погода Анучино : погода сейчас, прогноз погоды и архив. Всё, что Вы хотите узнать о погоде Анучино!

Хотите узнать прогноз погоды Анучино? Тогда Вам сюда: Погода Анучино

Поиск расширенной информации на нашем сайте:

Другие новости

Новости СМИ2

Главная страница сайта

Новости сайта

03.07.2017

Напоминаем, что на нашем специализированном сайте Метеоцентр.Азия вы можете получить высокодетализированные автоматические прогнозы погоды по пунктам России, СНГ и мира в авиационном формате (включающие направление и скорость ветра, видимость, явления погоды, количество и форму облачности, нижнюю и верхнюю границу облачности).


Погода Анучино - сегодня

Время (UTC), дата Ветер
(°,м/с) 
Видим.   Явления Облачность Т
(°С)
Тd
(°С)
f(%) Тe
(°С)
Pmin
(гПа)
dP
(гПа)
Po
(мм)
O2
(г/м3)
Тmin Tmax R s Состояние
почвы
09 15.08.17 тихо ()   20000 м    10/4 600 м верхняя 
[Cu med, cong|Ci sp]
+26.4 +17.5 58 +40  1007.9  740  268    +28       
12 15.08.17 220 (ЮЗ) 20000 м    3/0 верхняя 
[Ci fib]
+19.3 +17.6 90 +35  1009.9  1.4  741  275           
15 15.08.17 240 (ЮЗ) 20000 м    8/8 200 м 
[St]
+19.2 +18 93 +36  1010.2  0.4  741  275           
18 15.08.17 240 (ЮЗ) 20000 м    10/10 300 м 
[St]
+17.8 +16.8 94 +31  1010.5  0.1  742  277           
21 15.08.17 220 (ЮЗ) 20000 м    10/10 600 м 
[Sc]
+18 +16.6 92 +31  1011.3  0.9  742  277  +17.6        влажная 
00 16.08.17 250 (З) 20000 м    10/10 600 м 
[Sc]
+19.7 +15.7 78 +31  1011.4  0.2  742  276           
03 16.08.17 040 (СВ) 20000 м    9/3 600 м верхняя 
[Cu med, cong|Ci sp]
+24.9 +15.8 57 +35  1010.4  -0.7  742  271           
06 16.08.17 090 (В) 20000 м    10/10 600 м 
[Cu Sc]
+25.3 +15.7 55 +36  1009.9  -0.4  742  270           
09 16.08.17 230 (ЮЗ) 20000 м    8/0 верхняя 
[Cc]
+23.9 +17.4 67 +37  1010.1  0.1  742  271    +27.1       
12 16.08.17 260 (З) 20000 м    10/6 600 м средняя 
[Sc|Ac trans]
+19.4 +17.2 87 +34  1012.5  743  276           
15 16.08.17 240 (ЮЗ) 20000 м    10/10 300 м 
[St]
+18.6 +17.1 91 +33  1013.1  0.5  744  277           
18 16.08.17 тихо ()   20000 м    10/10 300 м 
[St]
+18.5 +17.5 94 +32  1013.2  0.1  744  277           
21 16.08.17 тихо ()   20000 м    8/8 300 м 
[St]
+18.4 +17.2 93 +31  1013.7  0.5  744  277  +18.3        сухая 
00 17.08.17 020 (С) 20000 м    9/9 600 м 
[Sc diur, vesp]
+21.1 +16.7 76 +33  1014  0.5  744  275           
03 17.08.17 060 (СВ) 20000 м    10/8 600 м средняя 
[Cu med, cong|Ac trans]
+24.9 +16.4 59 +36  1012.8  -0.9  744  271           
06 17.08.17 030 (СВ) 20000 м    8/3 600 м средняя 
[Cu med, cong|Ac trans]
+25.7 +16.8 58 +38  1011.3  -1.4  743  270           
09 17.08.17 тихо ()   20000 м    4/1 600 м верхняя 
[Cu med, cong|Cc]
+25.8 +17.5 60 +39  1011.1  -0.2  742  269    +26.8       
12 17.08.17 170 (Ю) 20000 м    8/0 верхняя 
[Ci fib]
+19.5 +17.5 88 +35  1013  1.4  743  276           
15 17.08.17 230 (ЮЗ) 20000 м    10/0 средняя 
[As trans]
+18 +17.3 96 +32  1013.6  0.5  744  277           
18 17.08.17 тихо ()   20000 м    10/0 средняя 
[As op]
+18.8 +17.1 90 +32  1013.6  744  277           
21 17.08.17 тихо ()   20000 м    10/3 300 м средняя 
[St|As op]
+18.3 +16.7 90 +30  1014.4  0.8  744  277  +17.5        сухая 
00 18.08.17 160 (Ю) 20000 м    6/6 600 м 
[Cu med, cong]
+22.6 +18 75 +37  1014.3  0.2  745  273           
03 18.08.17 040 (СВ) 20000 м    4/4 600 м 
[Cu med, cong]
+25.8 +17.2 59 +39  1013.5  -0.5  744  270           
06 18.08.17 050 (СВ) 20000 м    3/3 600 м 
[Cu med, cong]
+27.4 +16.7 52 +39  1012.2  -1.2  743  269           
09 18.08.17 020 (С) 20000 м    ясно 
+26 +17.5 59 +40  1012.1  -0.2  743  270    +27.5       
Время (UTC), дата Ветер
(°,м/с) 
Видим.   Явления Облачность Т
(°С)
Тd
(°С)
f(%) Тe
(°С)
Pmin
(гПа)
dP
(гПа)
Po
(мм)
O2
(г/м3)
Тmin Tmax R s Состояние
почвы

Для получения пояснительной информации подведите курсор к названию столбца.

ПОГОДА Анучино - архив

Всё, что Вы хотите узнать о погоде Анучино - удобно и подробно!

Выберите нужную дату (начиная с 1 января 2015* года) и нажмите кнопку "Найти".
Будут отображены архивные сводки погоды по пункту Анучино, начиная с указанной даты.


Отображать данные в формате CSV (для использования в таблицах Excel)


Внимание! Наш архив погоды предназначен исключительно для личного некоммерческого использования в познавательных целях. Если Вам необходимы официальные справки о состоянии погоды (для производственных, юридических, коммерческих и т.п. целей), обращайтесь в органы Росгидромета.

*Примечание: данная дата относится к архиву по метеостанциям СССР (Россия, СНГ, Балтия).
Архив по метеостанциям Зарубежной Европы и Азии (кроме Китая) хранится 10 дней, по другим регионам земного шара (Китай, Африка, Америка, Австралия, Океания) - 1 день.

Анучино - район местоположения метеостанции


Название, широта, долгота, высота метеостанции:
Анучино 44°ш. 133.1°д. 188 м над ур. моря [Российская Федерация]

Дополнительная информация

В oтличие oт бoльшинства пoгoдных сайтoв мы публикуем пoдрoбную метеoинфoрмацию в детальнoм прoфессиoнальнoм фoрмате.

Характеристики температуры и влажнoсти вoздуха измеряются на высoте 2 м в тени вдали oт зданий и деревьев.
Скoрoсть ветра измеряется на высoте 10 м (на урoвне рoста челoвека скoрoсть ветра ниже в 1.5-2 раза). Если метеoстанция нахoдится в гoрoде или в лесу, тo скoрoсть ветра занижена на 2-4 м/с пo сравнению с oткрытым местoм. Скoрoсть ветра над акватoриями крупных рек и oзёр, а также на вершинах хoлмoв на 2-5 м/с выше, чем в oбычных услoвиях.
Атмoсфернoе давление в разных тoчках местнoсти мoжет значительнo oтличаться oт давления на метеoстанции, в зависимoсти oт услoвий рельефа (при пoдъёме на 10 м давление пoнижается примернo на 1 мм рт.ст.).